• In Hungary
  • List of Countries
  • For 7 days
  • Water Temperature
  • Satellite Maps
  • Weather Map
  • News
  • Weather Widgets
  • user-avatar
    Login

    Hourly Weather Mumbai

    Today, 22 November, Wednesday

    Time Temperature Precipitation Wind Pressure Humidity
    00:00 +28°C° 0 mm 2 mps 757 mmHg 68%
    01:00 +27°C° 0 mm 2 mps 757 mmHg 68%
    02:00 +27°C° 0 mm 2 mps 757 mmHg 68%
    03:00 +27°C° 0 mm 2 mps 757 mmHg 69%
    04:00 +27°C° 0 mm 2 mps 757 mmHg 69%
    05:00 +27°C° 0 mm 2 mps 757 mmHg 67%
    06:00 +28°C° 0 mm 2 mps 757 mmHg 65%
    07:00 +29°C° 0 mm 2 mps 758 mmHg 62%
    08:00 +30°C° 0 mm 2 mps 758 mmHg 60%
    09:00 +32°C° 0 mm 2 mps 758 mmHg 53%
    10:00 +35°C° 0 mm 2 mps 758 mmHg 47%
    11:00 +38°C° 0 mm 2 mps 758 mmHg 40%
    12:00 +38°C° 0 mm 3 mps 757 mmHg 40%
    13:00 +38°C° 0 mm 3 mps 757 mmHg 39%
    14:00 +38°C° 0 mm 4 mps 756 mmHg 38%
    15:00 +37°C° 0 mm 4 mps 756 mmHg 44%
    16:00 +35°C° 0 mm 4 mps 756 mmHg 49%
    17:00 +33°C° 0 mm 5 mps 756 mmHg 54%
    18:00 +32°C° 0 mm 4 mps 756 mmHg 57%
    19:00 +30°C° 0 mm 4 mps 757 mmHg 60%
    20:00 +29°C° 0 mm 4 mps 757 mmHg 62%
    21:00 +29°C° 0 mm 4 mps 757 mmHg 62%
    22:00 +28°C° 0 mm 3 mps 758 mmHg 61%
    23:00 +28°C° 0 mm 3 mps 758 mmHg 61%

    Tomorrow, 23 November, Thursday

    Time Temperature Precipitation Wind Pressure Humidity
    00:00 +28°C° 0 mm 3 mps 757 mmHg 60%
    01:00 +28°C° 0 mm 3 mps 757 mmHg 60%
    02:00 +27°C° 0 mm 3 mps 757 mmHg 59%
    03:00 +27°C° 0 mm 3 mps 757 mmHg 59%
    04:00 +27°C° 0 mm 3 mps 756 mmHg 59%
    05:00 +27°C° 0 mm 3 mps 756 mmHg 58%
    06:00 +28°C° 0 mm 3 mps 757 mmHg 56%
    07:00 +29°C° 0 mm 3 mps 757 mmHg 54%
    08:00 +30°C° 0 mm 3 mps 758 mmHg 52%
    09:00 +32°C° 0 mm 2 mps 758 mmHg 47%
    10:00 +36°C° 0 mm 2 mps 758 mmHg 42%
    11:00 +38°C° 0 mm 2 mps 758 mmHg 36%
    12:00 +38°C° 0 mm 3 mps 757 mmHg 36%
    13:00 +38°C° 0 mm 3 mps 757 mmHg 36%
    14:00 +38°C° 0 mm 3 mps 756 mmHg 36%
    15:00 +37°C° 0 mm 3 mps 756 mmHg 41%
    16:00 +35°C° 0 mm 4 mps 756 mmHg 45%
    17:00 +34°C° 0 mm 4 mps 756 mmHg 50%
    18:00 +31°C° 0 mm 3 mps 757 mmHg 52%
    19:00 +30°C° 0 mm 3 mps 758 mmHg 55%
    20:00 +29°C° 0 mm 3 mps 758 mmHg 57%
    21:00 +29°C° 0 mm 3 mps 758 mmHg 57%
    22:00 +28°C° 0 mm 2 mps 758 mmHg 58%
    23:00 +28°C° 0 mm 2 mps 758 mmHg 58%

    Day after tomorrow, 24 November, Friday

    Time Temperature Precipitation Wind Pressure Humidity
    00:00 +28°C° 0 mm 2 mps 758 mmHg 58%
    01:00 +27°C° 0 mm 2 mps 758 mmHg 57%
    02:00 +27°C° 0 mm 2 mps 758 mmHg 57%
    03:00 +27°C° 0 mm 2 mps 757 mmHg 57%
    04:00 +27°C° 0 mm 2 mps 757 mmHg 57%
    05:00 +26°C° 0 mm 2 mps 757 mmHg 57%
    06:00 +27°C° 0 mm 2 mps 758 mmHg 55%
    07:00 +28°C° 0 mm 2 mps 758 mmHg 53%
    08:00 +29°C° 0 mm 2 mps 759 mmHg 51%
    09:00 +32°C° 0 mm 2 mps 759 mmHg 45%
    10:00 +35°C° 0 mm 2 mps 759 mmHg 40%
    11:00 +38°C° 0 mm 2 mps 759 mmHg 34%
    12:00 +38°C° 0 mm 2 mps 758 mmHg 33%
    13:00 +38°C° 0 mm 3 mps 758 mmHg 33%
    14:00 +38°C° 0 mm 3 mps 757 mmHg 32%
    15:00 +36°C° 0 mm 4 mps 757 mmHg 37%
    16:00 +35°C° 0 mm 4 mps 757 mmHg 42%
    17:00 +33°C° 0 mm 4 mps 757 mmHg 47%
    18:00 +32°C° 0 mm 4 mps 758 mmHg 49%
    19:00 +30°C° 0 mm 4 mps 758 mmHg 51%
    20:00 +29°C° 0 mm 4 mps 759 mmHg 53%
    21:00 +28°C° 0 mm 3 mps 759 mmHg 53%
    22:00 +28°C° 0 mm 3 mps 759 mmHg 52%
    23:00 +28°C° 0 mm 3 mps 759 mmHg 52%

    25 November, Saturday

    Time Temperature Precipitation Wind Pressure Humidity
    00:00 +27°C° 0 mm 2 mps 759 mmHg 52%
    01:00 +27°C° 0 mm 2 mps 758 mmHg 51%
    02:00 +27°C° 0 mm 2 mps 758 mmHg 51%
    03:00 +26°C° 0 mm 3 mps 758 mmHg 51%
    04:00 +26°C° 0 mm 3 mps 758 mmHg 51%
    05:00 +26°C° 0 mm 3 mps 758 mmHg 51%
    06:00 +27°C° 0 mm 3 mps 759 mmHg 49%
    07:00 +28°C° 0 mm 3 mps 759 mmHg 48%
    08:00 +29°C° 0 mm 3 mps 760 mmHg 46%
    09:00 +31°C° 0 mm 3 mps 760 mmHg 41%
    10:00 +35°C° 0 mm 3 mps 760 mmHg 36%
    11:00 +37°C° 0 mm 3 mps 760 mmHg 31%
    12:00 +37°C° 0 mm 3 mps 759 mmHg 31%
    13:00 +38°C° 0 mm 3 mps 758 mmHg 30%
    14:00 +38°C° 0 mm 4 mps 757 mmHg 30%
    15:00 +36°C° 0 mm 4 mps 757 mmHg 35%
    16:00 +35°C° 0 mm 4 mps 757 mmHg 39%
    17:00 +33°C° 0 mm 4 mps 757 mmHg 44%
    18:00 +32°C° 0 mm 4 mps 758 mmHg 46%
    19:00 +30°C° 0 mm 4 mps 758 mmHg 48%
    20:00 +29°C° 0 mm 4 mps 759 mmHg 51%
    21:00 +28°C° 0 mm 3 mps 759 mmHg 50%
    22:00 +28°C° 0 mm 3 mps 759 mmHg 49%
    23:00 +28°C° 0 mm 3 mps 759 mmHg 48%

    26 November, Sunday

    Time Temperature Precipitation Wind Pressure Humidity
    00:00 +27°C° 0 mm 3 mps 759 mmHg 48%
    01:00 +27°C° 0 mm 2 mps 759 mmHg 47%
    02:00 +27°C° 0 mm 2 mps 758 mmHg 47%
    03:00 +27°C° 0 mm 2 mps 758 mmHg 47%
    04:00 +27°C° 0 mm 3 mps 758 mmHg 47%
    05:00 +26°C° 0 mm 3 mps 758 mmHg 48%
    06:00 +27°C° 0 mm 3 mps 759 mmHg 48%
    07:00 +28°C° 0 mm 3 mps 759 mmHg 47%
    08:00 +29°C° 0 mm 2 mps 760 mmHg 47%
    09:00 +31°C° 0 mm 2 mps 760 mmHg 42%
    10:00 +34°C° 0 mm 2 mps 760 mmHg 37%
    11:00 +37°C° 0 mm 2 mps 760 mmHg 32%
    12:00 +37°C° 0 mm 2 mps 759 mmHg 31%
    13:00 +38°C° 0 mm 2 mps 758 mmHg 30%
    14:00 +39°C° 0 mm 2 mps 757 mmHg 28%
    15:00 +37°C° 0 mm 2 mps 757 mmHg 34%
    16:00 +35°C° 0 mm 3 mps 757 mmHg 39%
    17:00 +33°C° 0 mm 4 mps 757 mmHg 44%
    18:00 +31°C° 0 mm 3 mps 758 mmHg 48%
    19:00 +30°C° 0 mm 3 mps 758 mmHg 51%
    20:00 +29°C° 0 mm 3 mps 759 mmHg 54%
    21:00 +28°C° 0 mm 3 mps 759 mmHg 54%
    22:00 +28°C° 0 mm 3 mps 759 mmHg 54%
    23:00 +28°C° 0 mm 3 mps 759 mmHg 53%

    27 November, Monday

    Time Temperature Precipitation Wind Pressure Humidity
    00:00 +27°C° 0 mm 3 mps 758 mmHg 51%
    01:00 +27°C° 0 mm 3 mps 758 mmHg 49%
    02:00 +26°C° 0 mm 3 mps 757 mmHg 46%
    03:00 +26°C° 0 mm 3 mps 757 mmHg 43%
    04:00 +26°C° 0 mm 3 mps 757 mmHg 40%
    05:00 +25°C° 0 mm 3 mps 758 mmHg 37%
    06:00 +26°C° 0 mm 3 mps 758 mmHg 36%
    07:00 +27°C° 0 mm 3 mps 759 mmHg 35%
    08:00 +27°C° 0 mm 3 mps 759 mmHg 34%
    09:00 +30°C° 0 mm 2 mps 759 mmHg 30%
    10:00 +32°C° 0 mm 2 mps 759 mmHg 26%
    11:00 +36°C° 0 mm 2 mps 759 mmHg 22%
    12:00 +36°C° 0 mm 2 mps 758 mmHg 21%
    13:00 +37°C° 0 mm 2 mps 757 mmHg 20%
    14:00 +38°C° 0 mm 2 mps 756 mmHg 19%
    15:00 +36°C° 0 mm 3 mps 756 mmHg 25%
    16:00 +34°C° 0 mm 3 mps 756 mmHg 30%
    17:00 +32°C° 0 mm 4 mps 756 mmHg 35%
    18:00 +30°C° 0 mm 3 mps 757 mmHg 37%
    19:00 +29°C° 0 mm 3 mps 757 mmHg 39%
    20:00 +27°C° 0 mm 3 mps 758 mmHg 41%
    21:00 +27°C° 0 mm 3 mps 758 mmHg 40%
    22:00 +26°C° 0 mm 3 mps 758 mmHg 38%
    23:00 +26°C° 0 mm 2 mps 758 mmHg 37%
    Show more